Regional Weather Roundup
Issued by NWS Grand Forks, ND

Home | Current Version | Previous Version | Graphics & Text | Print | Product List | Glossary On
Versions: 1 2 3 4 5 6 7 8 9 10 11 12 13 14 15 16 17 18 19 20 21 22 23 24 25 26 27 28 29 30 31 32 33 34 35 36 37 38 39 40 41 42 43 44 45 46 47 48 49 50
000
ASUS43 KFGF 201710
RWRFGF
PRAIRIE TO PINES  WEATHER ROUNDUP
NATIONAL WEATHER SERVICE EASTERN NORTH DAKOTA/GRAND FORKS ND
1100 AM CST MON FEB 20 2017

 **SATELLITE DATA USED TO AUGMENT SKY COVER AT AUTOMATED STATIONS**
 *****  WEATHER ACROSS EASTERN NORTH DAKOTA  *****

CITY           SKY/WX    TMP DP  RH WIND       PRES   REMARKS
GRAND FORKS    LGT RAIN  39  36  89 W10       29.59F VSB 1/8
GRAND FRKS AFB CLOUDY    37  37 100 NW12      29.60S
DEVILS LAKE    LGT RAIN  34  33  96 NW15      29.63F FOG     WCI  24
FARGO          LGT RAIN  50  49  96 SE10      29.58F FOG
WAHPETON ARPT    N/A     46  45  93 SE9       29.57F VSB 1
$$

 ***** WEATHER ACROSS CENTRAL AND WESTERN NORTH DAKOTA  *****

CITY           SKY/WX    TMP DP  RH WIND       PRES   REMARKS
BISMARCK       PTSUNNY   40  37  89 W12       29.72R
MINOT          PTSUNNY   38  35  89 W12       29.69F
JAMESTOWN      LGT RAIN  35  33  92 NW10      29.63F FOG
MINOT AFB      CLOUDY    34  33  96 W7        29.69R FOG
GARRISON         N/A     36  34  92 NW9       29.69F
WILLISTON      FAIR      41  32  70 CALM      29.72S
DICKINSON      FAIR      46  35  65 W20       29.72R
HETTINGER      FAIR      48  33  56 NW16      29.76S
$$

 *****  OTHER AIRPORT OBSERVATIONS IN OUR AREA  *****

CITY           SKY/WX    TMP DP  RH WIND       PRES   REMARKS
WALHALLA       NOT AVBL
GRAFTON AIRPOR FOG       34  34 100 W9        29.63R VSB<1/4
VALLEY CITY AR LGT RAIN  36  36 100 NW16G23   29.66R
CANDO          NOT AVBL
CAVALIER APRT  MIX PCPN  36  36 100 NW9       29.62R
GWINNER        CLOUDY    48  48 100 W20G25    29.62R
SHEYENNE NWR     N/A     48  48 100 W6        29.95S
ROLLA          PTSUNNY   32  32 100 N10       29.65R WCI  24
 ***** THE ABOVE OBSERVATIONS ARE NON NWS ARE NOT QUALITY
       CONTROLLED AND MAY MIS-REPORT RAIN FOR SNOW...
$$

  *****  WEATHER ACROSS NORTHERN MINNESOTA  *****

CITY           SKY/WX    TMP DP  RH WIND       PRES   REMARKS
FLAG ISLAND    CLOUDY    39  37  93 SE9       29.63F
WARROAD        DRIZZLE   41  37  87 SE7       29.62F
ROSEAU         DRIZZLE   39  36  87 SE9       29.61F
HALLOCK        FOG       36  36 100 CALM      29.60S VSB<1/4
THF RVR FALLS  LGT RAIN  42  42 100 SE14      29.62F VSB 1/2
BAUDETTE       CLOUDY    41  38  89 SE9       29.66S
WASKISH        CLOUDY    46  43  87 S9        29.68S
CROOKSTON      LGT RAIN  43  43 100 S17       29.59F VSB 1/4
GREENBUSH NDAW   N/A     37  37 100 S3          N/A
$$
  *****  WEATHER ACROSS CENTRAL AND WEST MINNESOTA  *****

CITY           SKY/WX    TMP DP  RH WIND       PRES   REMARKS
FOSSTON        RAIN      43  43 100 S7        29.64F
BEMIDJI        LGT RAIN  40  39  95 SE8       29.66F
PARK RAPIDS    LGT RAIN  46  43  89 SE13      29.66F FOG
ELBOW LAKE     RAIN      48  48 100 E10       29.62F
WADENA         RAIN      45  45 100 SE8       29.67F
DETROIT LAKES  LGT RAIN  46  46 100 E5        29.62F VSB 1/4
MOORHEAD       RAIN      48  46  93 SE8       29.61F
FERGUS FALLS   DRIZZLE   48  48 100 SE14      29.64F
MORRIS MN      PTSUNNY   52  52 100 SE13      29.61F FOG
STAPLES        RAIN      46  45  93 SE7       29.69F
$$
  *****  WEATHER ELSEWHERE ACROSS MINNESOTA  *****

CITY           SKY/WX    TMP DP  RH WIND       PRES   REMARKS
DULUTH         CLOUDY    42  36  79 SE14      29.82F
INTRNTL FALLS  CLOUDY    44  36  73 SE10      29.70F
ELY            FAIR      43  36  75 SE10G16   29.81F
CLOQUET        CLOUDY    41  34  75 E7        29.81F
WHEATON        PTSUNNY   50  48  93 SE10      29.62S FOG
BRAINERD       LGT RAIN  47  45  93 SE7       29.71F FOG
HIBBING        CLOUDY    42  37  82 SE12      29.78F
ALEXANDRIA     LGT RAIN  50  50 100 SE13      29.67F FOG
SAINT CLOUD    RAIN      48  47  96 SE9       29.73F FOG
MINNEAPOLIS    LGT RAIN  50  46  86 SE9       29.78F FOG
$$

  *****  WEATHER ACROSS SOUTH DAKOTA  *****

CITY           SKY/WX    TMP DP  RH WIND       PRES   REMARKS
SIOUX FALLS    CLOUDY    57  56  96 S13       29.66S FOG
BROOKINGS      CLOUDY    54  52  93 S14       29.64  FOG
WATERTOWN      FOG       50  50 100 S9        29.62S VSB 1/2
HURON          CLOUDY    46  43  89 NW24G32   29.65R
SISSETON         N/A     52  52 100 SW10      29.61R
ABERDEEN       PTSUNNY   44  39  82 NW24G30   29.64R
MITCHELL       FAIR      53  47  79 W16G22    29.65R
PIERRE         FAIR      46  43  89 NW21      29.73R
MOBRIDGE       PTSUNNY   41  36  82 NW13      29.71R
RAPID CITY     FAIR      56  28  34 NW18      29.83R
$$

  *****  SOME WEATHER IN NEARBY STATES *****

CITY           SKY/WX    TMP DP  RH WIND       PRES   REMARKS
GLASGOW MT     FAIR      41  31  67 W3        29.73F
GREAT FALLS MT FAIR      43  23  45 S12       29.65F
CHEYENNE WY    FAIR      46  15  28 NW21G35   29.98R
SCOTTSBLUFF NE FAIR      49  22  34 NW14      29.95R
OMAHA NE       CLOUDY    60  56  86 S16       29.72F FOG
DES MOINES IA  LGT RAIN  61  56  83 S10       29.81F
DAVENPORT IA   PTSUNNY   58  50  75 SE18      29.96F
CHICAGO IL     CLOUDY    62  47  57 S17       30.09F
EAU CLAIRE WI  FAIR      49  43  80 SE12G18   29.86F
LA CROSSE WI   PTSUNNY   57  49  74 S10       29.90F
$$

  *****  SOME NATIONAL WEATHER *****

CITY           SKY/WX    TMP DP  RH WIND       PRES   REMARKS
LA GUARDIA NY  FAIR      52  26  36 NW13      30.18F
RALEIGH NC     PTSUNNY   68  37  32 NE5       30.23F
ATLANTA GA     PTSUNNY   67  47  48 SE7       30.20F
NEW ORLEANS LA PTSUNNY   76  66  71 S21       30.07F
OKLAHOMA CITY  CLOUDY    57  54  89 S17       29.91R
ALBUQUERQUE NM PTSUNNY   49  32  52 NW21      30.24R
SALT LAKE CITY PTSUNNY   50  33  52 S25G37    30.03R
LOS ANGELES CA CLOUDY    54  53  97 E13       30.27R FOG
BOISE ID       FAIR      50  36  58 SE23G32   29.72R
SEATTLE WA     LGT RAIN  42  39  89 N16       29.47S
$$

*** WEATHER ACROSS MANITOBA...SASKATCHEWAN AND ONTARIO ***
                ***ONTARIO***

CITY           SKY/WX    TMP DP  RH WIND       PRES   REMARKS
GERALDTON      CLOUDY    37  27  65 S12G23    30.09F
THUNDER BAY    CLOUDY    37  32  81 E15       30.00F
SIOUX LOOKOUT  CLOUDY    39  34  81 S9        29.77F
TORONTO        MOSUNNY   39  21  48 NE5       30.35F
BIG TROUT LK   FLURRIES  30  27  86 SE15G22   29.84  WCI  19
PICKLE LAKE    LGT RAIN  36  32  87 S15G23    29.85R
DRYDEN         CLOUDY    39  36  87 SE17      29.71F
KENORA         LGT RAIN  41  39  93 S9        29.66F
$$
                *** MANITOBA***

CITY           SKY/WX    TMP DP  RH WIND       PRES   REMARKS
BRANDON        CLOUDY    34  30  86 NW17      29.63F WCI  23
DAUPHIN        PTSUNNY   34  30  86 W16       29.62F WCI  23
ISLAND LAKE    NOT AVBL
PILOT MOUND      N/A     34  34 100 NW9         N/A
THE PAS        CLOUDY    25  21  86 N5        29.61F WCI  19
THOMPSON       LGTSLEET  23  21  93 E7        29.66F WCI  15
WINNIPEG       CLOUDY    34  32  93 W6        29.61R
LYNN LAKE      LGT SNOW  19  18  93 E10       29.66F VSB 1   WCI   8
CHURCHILL      CLOUDY    14  10  85 E14       30.02F WCI  -1
GILLAM         FRZ RAIN  23  19  86 E12G22    29.77F WCI  12
$$
                ***SASKATCHEWAN***

CITY           SKY/WX    TMP DP  RH WIND       PRES   REMARKS
ESTEVAN        PTSUNNY   34  32  93 SW10      29.68F
KINDERSLEY     CLOUDY    32  28  86 W7        29.61F
LLOYDMINSTER   CLOUDY    34  32  93 NW10      29.58S
PRINCE ALBERT  CLOUDY    34  34 100 W8        29.57F FOG
REGINA         PTSUNNY   36  32  87 W7        29.65F
YORKTON        CLOUDY    32  32 100 W8        29.63S FOG     WCI  25
N. BATTLEFORD  CLOUDY    36  34  93 W9        29.60F
LA RONGE       FLURRIES  25  23  93 SE6       29.57F WCI  18
SASKATOON      CLOUDY    36  32  87 W7        29.61F
SWIFT CURRENT  SUNNY     36  32  87 SW12      29.62S
$$
NOTE: THESE ARE AUTOMATED STATIONS WITH LIMITED QUALITY CONTROL
      "FAIR" INDICATES FEW OR NO CLOUDS BELOW 12,000 FEET WITH NO
      SIGNIFICANT WEATHER AND/OR OBSTRUCTIONS TO VISIBILITY.
      SKY/WX - SKY CONDITION AND SIGNIFICANT WEATHER.
      TMP - AIR TEMPERATURE.    DP   - DEWPOINT TEMPERATURE.
      RH  - RELATIVE HUMIDITY.  PRES - PRESSURE.
      HX  - HEAT INDEX.         WCI  - WIND CHILL INDEX.
$



USA.gov is the U.S. government's official web portal to all federal, state and local government web resources and services.